Probability
0 0 0 0 0 0 0 0 0 0 0 0 0 0 0 0 0 0 0 0 0 0 0 0 0 0 0 0 0 0 0 0 0 0 1 1 1 0
0 0 0 0 0 0 0 0 0 0 0 0 0 0 0 0 0 0 0 0 0 0 0 0 0 0 0 0 0 0 0 0 0 0 0 0 0 0
0 0 0 0 0 0 0 0 0 0 0 0 0 0 0 0 0 0 0 0 0 0 0 0 0 0 0 0 0 0 0 0 0 0 0 0 0 0
0 0 0 0 0 0 0 0 0 0 0 0 0 0 0 0 0 0 0 0 0 0 0 0 0 0 0 0 0 0 0 0 0 0 0 0 0 0
0 0 0 0 0 0 0 0 0 0 0 0 0 0 0 0 0 0 0 0 0 0 0 0 0 0 0 0 0 0 0 0 0 0 0 0 0 0
0 0 0 0 0 0 0 0 0 0 0 0 0 0 0 0 0 0 0 0 0 0 0 0 0 0 0 0 0 0 0 0 0 0 0 0 0 0
0 0 0 0 0 0 0 0 0 0 0 0 0 0 0 0 0 0 0 0 0 0 0 0 0 0 0 0 0 0 0 0 0 0 0 0 0 0
0 0 0 0 0 0 0 0 0 0 0 0 0 0 0 0 0 0 0 0 0 0 0 0 0 0 0 0 0 0 0 0 0 0 0 0 0 0
0 0 0 0 0 0 0 0 0 0 0 0 0 0 0 0 0 0 0 0 0 0 0 0 0 0 0 0 0 0 0 0 0 0 0 0 0 0
0 0 0 0 0 0 0 0 0 0 0 0 0 0 0 0 0 0 0 0 0 0 0 0 0 0 0 0 0 0 0 0 0 0 0 0 0 0
0 0 0 0 0 0 0 0 0 0 0 0 0 0 0 0 0 0 0 0 0 0 0 0 0 0 0 0 0 0 0 0 0 0 0 0 0 0
0 0 0 0 0 0 0 0 0 0 0 0 0 0 0 0 0 0 0 0 0 0 0 0 0 0 0 0 0 0 0 0 0 0 0 0 0 0
0 0 0 0 0 0 0 0 0 0 0 0 0 0 0 0 0 0 0 0 0 0 0 0 0 0 0 0 0 0 0 0 0 0 0 0 0 0
0 0 0 0 0 0 0 0 0 0 0 0 0 0 0 0 0 0 0 0 0 0 0 0 0 0 0 0 0 0 0 0 0 0 0 0 0 0
0 0 0 0 0 0 0 0 0 0 0 0 0 0 0 0 0 0 0 0 0 0 0 0 0 0 0 0 0 0 0 0 0 0 0 0 0 0
0 0 0 0 0 0 0 0 0 0 0 0 0 0 0 0 0 0 0 0 0 0 0 0 0 0 0 0 0 0 0 0 0 0 0 0 0 0
0 0 0 0 0 0 0 0 0 0 0 0 0 0 0 0 0 0 0 0 0 0 0 0 0 0 0 0 0 0 0 0 0 0 0 0 0 0
0 0 0 0 0 0 0 0 0 0 0 0 0 0 0 0 0 0 0 0 0 0 0 0 0 0 0 0 0 0 0 0 0 0 0 0 0 0
0 0 0 0 0 0 0 0 0 0 0 0 0 0 0 0 0 0 0 0 0 0 0 0 0 0 0 0 0 0 0 0 0 0 0 0 0 0
0 0 0 0 0 0 0 0 0 0 0 0 0 0 0 0 0 0 0 0 0 0 0 0 0 0 0 0 0 0 0 0 0 0 0 0 0 0
0 0 0 0 0 0 0 0 0 0 0 0 0 0 0 0 0 0 0 0 0 0 0 0 0 0 0 0 0 0 0 0 0 0 0 0 0 0
0 0 0 0 0 0 0 0 0 0 0 0 0 0 0 0 0 0 0 0 0 0 0 0 0 0 0 0 0 0 0 0 0 0 0 0 0 0
0 0 0 0 0 0 0 0 0 0 0 0 0 0 0 0 0 0 0 0 0 0 0 0 0 0 0 0 0 0 0 0 0 0 0 0 0 0
Wind_Speed
4 4 3 2 2 2 2 2 4 2 2 3 3 4 5 4 7 6 6 13 14 14 14 15 15 15 15 16 16 15 15 14 14 13 12 12 11 11
3 4 4 2 3 3 2 2 2 3 2 1 2 3 4 5 9 6 7 13 15 14 14 14 14 15 14 15 15 15 15 14 14 13 12 12 12 11
4 5 4 3 3 3 3 3 3 3 3 1 1 2 4 5 6 5 5 5 7 15 15 14 13 14 14 14 14 14 14 14 14 14 13 13 12 12
3 4 3 3 4 3 3 3 2 2 3 2 2 3 3 3 4 5 5 6 5 12 14 14 14 13 13 13 13 13 13 13 13 13 14 13 13 12
2 3 2 3 3 3 3 3 2 3 2 2 1 2 2 3 3 4 4 4 5 8 10 12 13 13 13 13 13 13 12 12 12 12 13 13 13 13
2 2 2 3 3 3 3 3 3 3 3 2 1 2 2 2 2 3 4 4 4 5 6 7 9 11 11 12 12 12 12 11 11 11 12 12 12 13
2 1 1 3 3 3 3 2 3 3 2 2 1 1 2 2 2 2 2 3 3 3 3 4 4 4 5 8 9 11 11 10 10 11 11 11 12 12
2 1 1 1 3 4 4 4 4 3 3 2 1 0 1 1 1 1 1 2 3 3 2 3 3 3 3 3 6 9 10 10 10 10 11 11 12 12
2 1 1 1 2 2 3 4 2 2 3 4 3 2 2 2 1 1 1 1 2 3 1 2 2 2 3 4 7 8 9 9 10 11 11 12 12 12
2 2 2 1 1 3 2 2 1 1 0 1 3 3 3 3 3 2 2 1 3 2 0 1 3 3 4 4 7 8 8 9 10 11 12 12 12 12
1 2 2 2 3 4 3 2 0 2 1 1 2 2 3 2 2 1 1 1 2 3 1 1 2 3 3 4 5 8 9 10 11 12 13 13 12 12
1 2 4 4 4 4 3 3 2 3 1 1 2 3 2 2 1 2 2 1 1 3 2 1 2 2 4 3 3 4 6 8 11 11 13 13 12 8
2 2 3 5 5 5 4 3 4 3 1 1 1 2 2 2 2 1 2 3 2 3 3 1 1 1 2 4 4 4 4 5 6 7 10 12 13 10
4 3 4 6 5 5 4 4 5 2 1 0 1 2 2 2 2 2 2 3 4 5 4 2 2 3 3 5 6 4 4 5 5 6 6 10 11 13
4 5 6 6 5 4 5 5 3 2 1 2 3 3 3 3 2 2 2 2 3 4 4 4 4 4 4 5 6 5 6 5 5 5 6 7 8 8
3 4 5 5 3 3 3 3 2 3 3 3 3 3 2 2 2 2 2 2 2 4 4 4 5 5 5 6 7 8 6 6 5 7 7 8 8 7
3 1 1 1 2 2 2 2 2 2 3 3 3 3 3 3 3 2 2 2 2 4 4 3 4 5 7 6 7 8 7 7 8 8 8 9 9 8
5 3 3 4 5 5 4 4 3 4 4 4 4 4 4 4 4 3 3 3 4 5 5 4 3 4 4 6 9 9 7 8 8 8 7 9 12 10
5 4 5 5 5 5 5 5 5 5 4 4 5 5 5 5 4 4 4 4 5 6 6 4 3 3 7 9 6 8 7 8 8 8 8 9 12 12
5 6 6 6 6 6 6 5 5 4 4 4 5 5 5 5 5 5 5 6 6 6 6 5 5 5 7 9 8 7 8 9 8 10 10 10 10 13
7 7 7 6 6 6 6 6 5 5 5 5 5 6 5 5 6 6 6 8 7 6 7 7 7 8 5 4 7 8 7 9 11 10 11 11 12 11
6 7 6 6 6 6 6 5 5 5 6 6 6 6 5 5 7 8 7 7 6 7 8 7 5 4 4 7 10 12 11 10 10 15 16 15 11 11
7 7 6 6 6 5 5 6 7 6 6 6 6 6 6 5 6 6 6 7 6 7 7 7 5 4 6 7 10 11 14 13 10 10 10 13 19 22
Wind_Direction
64 69 67 53 56 65 97 123 132 110 13 342 343 343 351 8 17 20 23 34 38 38 39 41 43 44 44 44 44 42 41 41 40 39 37 35 33 31
59 67 58 46 53 55 71 76 99 132 124 327 327 329 346 15 24 19 25 33 36 37 39 42 45 46 45 45 43 41 39 39 37 35 33 31 27 23
56 68 60 52 59 51 63 72 72 100 119 342 333 338 3 8 1 7 21 26 28 37 39 41 43 44 44 44 42 40 38 36 34 31 28 26 22 19
74 74 65 67 60 53 63 69 73 84 120 110 354 354 359 352 355 9 16 22 22 33 37 39 41 42 41 41 40 38 36 33 31 28 25 21 17 13
98 95 86 85 73 65 70 71 66 69 82 109 32 349 342 349 356 1 8 2 9 21 30 34 36 37 36 35 35 34 32 31 29 25 21 17 12 6
90 102 109 113 120 111 92 90 88 76 71 81 57 359 343 334 5 4 358 357 355 2 13 18 22 27 28 28 29 28 26 25 24 21 17 12 6 1
75 77 119 134 137 135 125 131 116 102 88 81 56 14 349 351 350 335 346 332 339 356 353 356 359 6 8 11 18 18 18 18 16 13 9 3 358 353
119 72 68 95 106 108 117 132 140 139 144 139 148 193 281 278 293 325 337 358 337 337 357 332 350 346 336 342 359 4 9 9 7 2 357 353 349 345
155 149 109 87 86 93 90 82 81 117 158 160 170 211 226 232 218 298 294 260 268 293 341 310 322 320 313 331 346 354 358 357 354 351 347 343 340 337
175 175 164 176 164 139 121 87 41 350 245 174 189 216 223 222 202 201 217 257 279 290 297 293 308 300 306 307 322 337 343 343 341 339 337 334 332 329
200 189 182 192 205 161 138 139 350 311 294 216 213 234 258 257 198 127 39 26 323 306 314 258 296 303 298 292 304 324 325 325 327 328 328 327 324 323
227 233 220 212 212 190 166 169 210 258 270 325 338 332 323 315 297 187 184 183 244 287 278 244 290 323 312 289 293 305 310 311 313 314 316 318 318 316
206 229 241 231 222 216 200 197 221 225 214 223 276 302 311 307 292 242 201 191 207 246 253 204 257 276 270 292 292 285 290 296 303 300 304 307 310 308
209 221 230 233 228 224 220 226 230 225 170 195 260 273 277 277 277 271 247 235 230 239 251 213 227 244 269 284 288 288 287 287 288 290 294 300 302 300
215 220 227 234 229 234 237 231 222 202 187 218 242 250 246 250 266 285 285 269 270 265 260 231 229 245 244 263 278 283 295 290 278 283 292 294 294 296
221 230 232 233 226 235 246 244 222 208 208 225 240 247 249 253 256 250 261 279 291 289 272 251 243 239 256 262 268 280 281 283 289 288 290 289 287 281
181 175 201 221 236 246 252 249 239 232 234 233 236 247 251 254 257 244 237 240 246 270 285 282 260 251 250 259 272 273 279 281 282 288 292 292 287 283
167 194 215 220 227 232 236 243 238 236 235 233 235 240 246 250 257 251 234 237 253 262 267 273 286 297 288 262 237 263 273 279 285 287 285 290 293 290
194 218 224 226 230 232 233 234 239 238 231 228 235 241 244 248 250 253 250 251 258 263 266 264 260 268 290 295 272 228 262 284 288 289 286 284 289 292
217 225 230 230 231 232 234 237 243 244 235 235 238 241 240 242 248 251 250 249 258 266 272 264 251 248 257 276 286 280 254 268 283 289 291 289 283 281
224 229 231 230 231 232 234 235 236 239 240 237 239 241 240 239 246 249 251 254 255 261 267 267 260 256 260 275 283 284 272 253 259 276 289 294 296 294
228 230 232 230 230 231 232 234 238 241 242 242 244 244 241 238 246 251 250 253 254 255 262 270 272 266 252 267 280 288 293 293 277 273 271 270 281 287
229 230 232 230 230 230 229 231 235 241 240 241 243 243 241 242 245 247 249 250 255 261 267 274 274 261 261 266 278 286 291 296 298 297 288 275 272 272